Snowfall_Accumulation
nan nan nan nan nan nan nan nan nan nan nan nan nan nan nan nan nan 0.0 0.0 0.0 0.0 0.0 0.0 0.0 0.0 0.0 0.0 0.0 0.0 0.0 0.0 0.0 0.0 0.0 0.2 0.0 0.0 0.0 0.0 0.0 0.0 0.0 0.3 0.3 0.2 0.3 3.5 0.0 0.0 0.0 0.0 0.0 0.0 0.0
nan nan nan nan nan nan nan nan nan nan nan nan nan nan nan nan nan nan 0.0 0.0 0.0 0.0 0.0 0.0 0.0 0.0 0.0 0.0 0.0 0.0 0.0 0.0 0.0 0.0 0.0 0.0 0.0 0.0 0.0 0.0 0.0 0.0 0.0 0.0 0.0 0.0 0.0 0.0 0.0 0.0 0.0 0.0 0.0 0.0
nan nan nan nan nan nan nan nan nan nan nan nan nan nan nan nan nan nan 0.0 0.0 0.0 0.0 0.0 0.0 0.0 0.0 0.0 0.0 0.0 0.0 0.0 0.0 0.0 0.0 0.0 0.0 0.0 0.0 0.0 0.0 0.0 0.0 0.0 0.0 0.0 0.0 0.0 0.0 0.0 0.0 0.0 0.0 0.0 0.0
nan nan nan nan nan nan nan nan nan nan nan nan nan nan nan nan nan nan 0.0 0.0 0.0 0.0 0.0 0.0 0.0 0.0 0.0 0.0 0.0 0.0 0.0 0.0 0.0 0.0 0.0 0.0 0.1 0.0 0.0 0.0 0.0 0.0 0.0 0.0 0.0 0.0 0.0 0.0 0.0 0.0 0.0 0.0 0.0 0.0
nan nan nan nan nan nan nan nan nan nan nan nan nan nan nan nan nan nan 0.0 0.0 0.0 0.0 0.0 0.0 0.0 0.0 0.0 0.0 0.0 0.0 0.0 0.0 0.0 0.0 0.0 0.1 0.0 0.0 0.0 0.0 0.0 0.0 0.0 0.0 0.0 0.0 0.0 0.0 0.0 0.0 0.0 0.0 0.0 0.0
nan nan nan nan nan nan nan nan nan nan nan nan nan nan nan nan nan 0.0 0.0 0.0 0.0 0.0 0.0 1.1 0.0 0.0 0.0 0.0 0.0 0.0 0.0 0.0 0.0 0.0 0.0 0.0 0.0 0.0 1.2 0.3 0.0 0.0 0.0 0.0 0.0 0.0 0.0 0.0 0.0 0.0 0.0 0.0 0.0 0.0
nan nan nan nan nan nan nan nan nan nan nan nan nan nan nan nan 0.0 0.0 0.0 0.0 nan 0.0 0.0 1.9 0.4 0.0 0.0 0.0 0.0 0.0 0.0 0.0 0.0 0.0 0.0 0.0 0.0 0.0 0.0 0.5 0.0 0.0 0.0 0.0 0.0 0.0 0.0 0.0 0.0 0.0 0.0 0.0 0.0 0.0
nan nan nan nan nan nan nan nan nan nan nan nan nan nan nan nan nan 0.0 0.0 nan nan 0.0 0.0 6.0 1.3 0.0 0.0 0.0 0.0 0.0 0.0 0.0 0.0 0.0 0.0 0.0 0.0 0.0 1.0 0.0 0.0 0.0 0.0 0.0 0.0 0.0 0.0 0.0 0.0 0.0 0.1 0.1 0.1 0.1
nan nan nan nan nan nan nan nan nan nan nan nan nan nan 0.0 0.0 0.0 0.0 nan nan 0.0 0.0 0.8 2.2 2.8 4.9 0.0 0.0 0.0 0.0 0.0 0.6 0.0 0.0 0.0 0.0 0.0 2.6 0.1 0.0 0.0 0.0 0.0 0.0 0.1 0.1 0.1 0.2 0.3 0.3 0.2 0.2 0.1 0.1
nan nan nan nan nan nan nan nan nan nan nan nan 0.0 0.0 0.5 0.0 nan nan 0.0 0.3 0.7 0.4 0.2 0.5 0.0 0.8 0.0 0.0 0.3 0.2 0.1 1.3 6.6 0.8 0.0 0.7 0.3 0.0 0.1 0.0 0.0 0.0 0.0 0.1 0.3 0.7 0.7 1.1 0.5 0.3 0.1 0.0 0.0 0.0
nan nan nan nan nan nan nan nan nan nan nan 0.0 0.1 0.6 0.0 nan 0.0 0.2 1.2 1.1 0.5 1.7 0.0 0.0 0.0 0.0 0.0 1.7 0.9 0.4 2.8 2.1 7.8 0.7 0.4 1.6 0.3 0.3 0.0 0.1 0.1 0.1 0.1 0.1 0.1 0.1 0.0 0.0 0.0 0.0 0.0 0.0 0.0 0.0
nan nan nan nan nan nan nan nan nan 0.0 0.0 0.0 0.1 0.0 0.0 0.4 1.5 3.8 5.2 4.5 1.7 4.9 0.6 0.2 0.3 0.1 0.5 0.3 1.0 2.5 3.2 4.1 6.7 0.0 2.7 2.8 0.4 0.0 0.0 0.0 0.0 0.0 0.0 0.0 0.0 0.0 0.0 0.0 0.0 0.0 0.0 0.0 0.0 0.0
nan nan nan nan nan nan nan nan nan nan nan 0.0 0.4 2.2 1.1 4.2 25.7 8.0 9.4 10.3 9.4 2.3 2.9 2.2 3.4 0.3 0.5 0.5 2.0 1.2 7.5 7.9 0.0 8.3 0.6 0.2 0.1 0.0 0.0 0.0 0.0 0.0 0.0 0.0 0.0 0.0 0.0 0.0 0.0 0.0 0.0 0.0 0.0 0.0
nan nan nan nan nan nan nan nan nan 0.0 0.0 1.1 6.2 33.2 8.3 9.7 2.9 3.0 1.7 2.5 1.9 2.7 1.6 0.8 2.4 1.3 0.4 2.2 0.4 7.4 0.6 0.2 10.1 8.8 4.9 0.1 0.1 0.0 0.0 0.0 0.0 0.0 0.0 0.0 0.0 0.0 0.0 0.0 0.0 0.0 0.0 0.0 0.0 0.0
nan nan nan nan nan nan nan nan nan 0.0 0.1 6.5 3.6 21.4 9.3 2.3 5.1 4.2 3.6 3.0 1.8 1.3 1.4 1.7 2.5 0.3 6.1 5.4 0.1 3.7 6.7 10.1 2.1 3.8 1.1 0.1 0.0 0.0 0.0 0.0 0.0 0.0 0.0 0.0 0.0 0.0 0.0 0.0 0.0 0.0 0.0 0.0 0.0 0.0
nan nan 0.0 nan nan nan nan nan 0.1 0.2 6.3 8.0 9.1 9.0 0.3 7.0 11.3 8.9 8.8 5.1 1.7 0.9 1.2 2.4 6.7 7.2 6.9 4.3 5.7 8.4 10.3 6.3 3.0 1.9 1.7 0.9 0.0 0.0 0.0 0.0 0.0 0.0 0.0 0.0 0.0 0.0 0.0 0.0 0.0 0.0 0.0 0.0 0.0 0.2
nan 0.0 nan nan nan nan nan 0.1 2.1 12.2 12.0 13.3 18.4 0.3 2.6 5.1 4.6 1.6 0.9 0.6 0.1 1.1 5.6 4.4 7.7 7.8 5.2 9.2 7.3 5.5 11.9 2.1 1.9 1.5 0.5 0.3 0.4 0.2 0.0 0.0 0.0 0.0 0.0 0.0 0.0 0.0 0.0 0.0 0.0 0.0 0.0 0.4 0.7 0.0
0.0 0.0 nan nan nan nan 0.1 1.4 6.8 12.2 17.8 9.1 6.6 4.0 0.3 0.4 2.4 1.4 0.4 0.6 0.9 1.6 2.3 7.0 4.6 9.7 8.3 8.1 4.7 2.3 2.3 1.2 0.7 0.6 0.5 0.2 0.0 0.0 0.2 0.0 0.3 0.1 0.0 0.0 0.7 0.7 0.8 1.0 0.7 0.8 0.7 0.7 0.7 0.7
0.0 0.0 nan nan 0.0 0.5 3.9 5.7 5.0 16.1 17.5 4.3 2.1 1.4 0.9 0.5 0.5 0.3 0.8 0.7 0.8 0.5 4.5 4.8 7.8 11.1 1.9 1.2 1.9 2.0 0.7 0.9 0.1 0.0 0.0 0.0 0.0 0.0 0.3 1.6 1.3 1.1 1.2 0.8 0.6 1.0 0.6 0.4 0.0 0.0 0.0 0.0 0.0 0.0
nan nan nan nan nan 3.0 9.8 12.4 3.4 5.9 12.9 5.1 4.0 5.4 2.7 1.5 0.6 0.5 0.9 1.3 2.4 8.6 10.8 11.8 2.1 0.0 0.0 0.2 0.9 0.5 0.5 0.1 0.0 0.0 0.0 0.0 0.0 1.6 1.8 1.8 1.4 1.3 1.1 0.8 1.0 nan 0.8 0.6 0.0 0.0 0.0 0.0 0.0 0.0
nan nan nan 0.0 1.8 1.3 5.2 8.4 7.5 9.3 7.4 6.0 6.8 3.8 5.1 6.0 7.7 9.8 9.9 3.0 11.5 14.9 8.9 0.0 0.0 0.0 0.4 0.5 0.0 0.0 0.0 0.0 0.0 0.0 0.6 1.1 0.0 1.1 1.6 2.5 3.1 2.5 2.0 1.5 2.4 1.2 1.8 1.0 0.8 0.8 12.2 1.4 1.2 0.0
0.2 nan 0.5 0.8 8.2 9.1 5.6 3.6 6.8 4.1 11.1 8.7 9.5 6.7 15.9 19.8 16.6 13.9 5.3 15.7 12.8 4.6 0.4 0.1 0.5 0.7 0.6 0.3 0.0 0.0 0.0 0.0 0.0 0.1 nan 0.0 2.9 1.9 2.0 3.0 3.7 7.3 6.7 8.0 4.1 1.8 0.9 0.8 0.8 0.8 0.9 1.5 0.8 0.8
nan 1.1 5.5 6.2 12.1 15.4 25.6 3.8 10.9 11.0 12.4 18.9 16.3 14.8 18.5 20.6 12.5 4.3 14.5 7.2 5.4 1.2 1.0 1.2 1.8 1.1 1.1 0.8 0.0 0.0 0.0 0.0 0.1 0.1 0.1 0.1 0.2 1.7 3.4 1.5 2.5 8.8 8.9 3.6 2.3 2.2 3.6 nan 1.2 1.3 1.4 1.4 1.4 1.4
nan 7.1 12.3 13.3 15.1 26.1 5.0 12.6 2.9 7.5 7.7 8.4 16.6 15.2 15.0 12.7 6.8 15.3 11.4 5.5 3.1 3.7 2.1 1.9 1.7 1.4 1.0 2.3 0.0 0.1 0.2 0.2 0.3 0.2 0.2 1.4 2.9 0.6 2.3 4.1 0.5 1.3 1.7 1.9 3.0 3.4 2.5 2.3 nan 2.4 2.9 3.3 3.4 3.1
21.2 29.0 14.8 39.0 11.2 12.5 10.3 6.4 12.9 6.7 11.3 8.6 10.3 12.9 13.0 7.7 14.3 17.2 9.1 6.7 6.8 6.4 4.5 2.0 1.4 1.4 4.8 7.2 0.0 0.0 0.0 0.5 0.9 0.9 0.7 0.4 0.4 0.7 3.8 1.6 0.3 0.5 1.4 5.7 2.4 2.6 3.7 3.7 3.0 3.6 3.2 3.1 4.0 4.7
41.0 15.8 29.1 9.3 15.5 8.0 6.2 9.4 6.8 9.5 7.4 11.9 12.0 8.0 10.2 8.9 14.2 17.8 6.3 8.9 5.7 7.2 9.3 5.2 2.8 2.3 2.2 2.0 0.2 0.3 0.4 0.6 0.7 0.9 0.8 0.7 0.7 7.4 10.0 4.1 4.3 2.2 0.9 1.0 4.3 5.2 4.1 4.2 4.3 4.4 4.5 3.6 nan 4.4
32.9 17.4 4.7 0.2 1.2 0.9 2.9 3.7 3.0 5.8 10.4 10.1 8.3 7.2 10.1 16.4 11.8 3.1 3.0 3.7 5.6 4.6 5.4 4.5 3.0 2.9 2.3 2.1 1.9 2.4 2.7 3.3 3.9 3.7 0.5 0.5 0.4 0.7 6.5 9.0 6.2 2.2 1.4 3.0 4.4 5.1 6.6 5.9 5.5 5.2 6.0 5.5 4.7 4.4
2.5 2.7 4.9 8.3 3.3 3.2 2.8 2.5 4.3 6.8 5.8 2.5 3.3 9.3 10.0 7.1 6.3 4.0 4.5 4.9 7.8 7.8 7.8 4.4 4.3 5.0 5.4 5.2 4.7 4.3 3.6 3.4 3.2 3.0 2.0 0.1 0.1 2.6 2.7 3.1 3.3 nan 4.5 3.9 5.2 6.3 6.4 6.5 7.1 6.8 6.2 6.8 6.3 4.6
6.7 4.4 3.6 9.4 6.0 7.4 8.7 7.6 5.8 3.0 0.3 2.3 6.8 5.2 4.6 1.6 5.3 4.0 5.3 7.4 9.3 8.5 7.7 6.9 8.1 8.0 5.8 4.7 4.4 4.5 4.9 4.5 4.4 2.9 2.0 2.8 3.1 4.5 4.0 3.6 4.7 4.5 4.4 4.4 nan nan 4.1 6.6 6.4 5.8 4.5 4.8 4.9 6.8
6.2 7.6 5.8 6.9 7.5 6.5 7.9 3.8 8.1 7.0 2.1 2.5 2.7 3.6 3.5 5.8 8.1 7.7 8.2 8.9 9.5 11.2 12.8 13.1 11.5 13.9 11.1 8.2 8.8 4.6 4.3 4.2 4.2 5.9 7.3 6.4 6.2 4.4 6.3 6.0 5.0 4.5 4.3 4.4 4.6 4.1 nan 4.9 nan 4.8 5.4 4.9 4.4 5.4
5.0 9.6 8.1 7.6 9.2 12.2 9.2 4.9 6.9 1.8 5.5 9.1 8.5 8.2 7.8 10.2 7.0 6.0 6.0 7.0 8.7 12.3 12.2 13.7 13.2 13.0 7.3 6.4 8.9 7.9 5.8 4.7 4.6 4.3 4.2 4.4 4.6 4.9 5.9 6.0 5.5 4.6 4.4 3.8 3.8 4.1 6.1 6.6 6.7 7.5 5.0 6.6 6.1 6.3
6.9 9.1 10.6 8.1 13.0 14.6 9.7 12.8 13.6 12.6 12.2 12.3 12.6 13.1 10.9 9.5 6.8 6.8 5.3 10.7 9.9 7.8 nan 8.7 6.1 5.0 5.0 5.0 4.1 3.6 nan 4.1 4.3 4.3 4.5 4.8 4.8 4.6 5.4 4.8 5.9 5.3 4.5 4.4 4.7 5.4 6.5 7.8 7.5 7.4 5.9 7.4 7.7 6.5
16.4 14.4 16.4 10.9 18.2 14.9 13.9 15.5 7.5 19.4 13.6 12.6 9.2 8.3 11.1 5.6 4.0 5.0 2.8 7.1 6.7 5.6 5.9 6.5 5.8 5.5 3.4 3.6 3.8 3.4 nan 4.1 4.9 nan nan nan nan nan 3.9 3.5 3.9 3.6 2.8 3.0 3.8 4.2 4.9 6.2 7.4 5.0 5.3 7.4 8.0 7.5
Water_Equivalent
nan nan nan nan nan nan nan nan nan nan nan nan nan nan nan nan nan 0.00 0.00 0.00 0.00 0.00 0.00 0.00 0.00 0.00 0.00 0.00 0.00 0.00 0.00 0.00 0.00 0.00 0.05 0.00 0.00 0.00 0.00 0.00 0.00 0.00 0.08 0.09 0.05 0.08 0.63 0.00 0.00 0.00 0.00 0.00 0.00 0.00
nan nan nan nan nan nan nan nan nan nan nan nan nan nan nan nan nan nan 0.00 0.00 0.00 0.00 0.00 0.00 0.00 0.00 0.00 0.00 0.00 0.00 0.00 0.00 0.00 0.00 0.00 0.00 0.00 0.00 0.00 0.00 0.00 0.00 0.00 0.00 0.00 0.01 0.00 0.00 0.00 0.00 0.00 0.00 0.00 0.00
nan nan nan nan nan nan nan nan nan nan nan nan nan nan nan nan nan nan 0.00 0.00 0.00 0.00 0.00 0.00 0.00 0.00 0.00 0.00 0.00 0.00 0.00 0.00 0.00 0.00 0.00 0.00 0.01 0.00 0.00 0.00 0.00 0.00 0.00 0.00 0.00 0.00 0.00 0.00 0.00 0.00 0.00 0.00 0.00 0.00
nan nan nan nan nan nan nan nan nan nan nan nan nan nan nan nan nan nan 0.00 0.00 0.00 0.00 0.00 0.00 0.00 0.00 0.00 0.00 0.00 0.00 0.00 0.00 0.00 0.00 0.00 0.00 0.03 0.00 0.00 0.00 0.00 0.00 0.00 0.00 0.00 0.00 0.00 0.00 0.00 0.00 0.00 0.00 0.00 0.00
nan nan nan nan nan nan nan nan nan nan nan nan nan nan nan nan nan nan 0.00 0.00 0.00 0.00 0.01 0.00 0.00 0.00 0.00 0.00 0.00 0.00 0.00 0.00 0.00 0.00 0.00 0.03 0.00 0.00 0.00 0.00 0.01 0.00 0.00 0.00 0.00 0.00 0.00 0.00 0.00 0.00 0.00 0.00 0.00 0.00
nan nan nan nan nan nan nan nan nan nan nan nan nan nan nan nan nan 0.00 0.00 0.00 0.00 0.00 0.00 0.43 0.00 0.00 0.00 0.00 0.00 0.00 0.00 0.00 0.00 0.00 0.00 0.00 0.00 0.00 0.41 0.10 0.00 0.00 0.00 0.00 0.00 0.00 0.00 0.00 0.00 0.00 0.00 0.00 0.00 0.00
nan nan nan nan nan nan nan nan nan nan nan nan nan nan nan nan 0.00 0.00 0.00 0.00 nan 0.00 0.02 0.72 0.16 0.00 0.00 0.00 0.00 0.00 0.00 0.00 0.00 0.00 0.00 0.00 0.00 0.00 0.00 0.17 0.00 0.00 0.00 0.00 0.00 0.00 0.00 0.00 0.00 0.00 0.00 0.00 0.00 0.00
nan nan nan nan nan nan nan nan nan nan nan nan nan nan nan nan nan 0.00 0.00 nan nan 0.00 0.00 2.05 0.43 0.00 0.00 0.00 0.00 0.00 0.00 0.00 0.00 0.00 0.00 0.00 0.00 0.00 0.35 0.00 0.00 0.00 0.00 0.00 0.00 0.00 0.00 0.00 0.00 0.01 0.02 0.02 0.03 0.02
nan nan nan nan nan nan nan nan nan nan nan nan nan nan 0.00 0.00 0.00 0.00 nan nan 0.00 0.00 0.31 0.70 0.80 1.29 0.00 0.00 0.00 0.00 0.00 0.22 0.00 0.02 0.00 0.00 0.01 0.77 0.02 0.00 0.00 0.00 0.00 0.00 0.03 0.03 0.04 0.05 0.08 0.08 0.06 0.05 0.03 0.02
nan nan nan nan nan nan nan nan nan nan nan nan 0.00 0.00 0.18 0.00 nan nan 0.01 0.10 0.24 0.13 0.07 0.17 0.00 0.24 0.00 0.00 0.13 0.09 0.05 0.45 1.78 0.25 0.00 0.27 0.13 0.01 0.02 0.01 0.00 0.00 0.01 0.02 0.06 0.15 0.18 0.27 0.14 0.07 0.03 0.00 0.00 0.00
nan nan nan nan nan nan nan nan nan nan nan 0.00 0.06 0.21 0.00 nan 0.00 0.07 0.36 0.32 0.16 0.45 0.00 0.01 0.00 0.01 0.00 0.51 0.30 0.15 0.80 0.61 1.36 0.15 0.09 0.34 0.06 0.07 0.00 0.02 0.02 0.03 0.02 0.02 0.01 0.02 0.01 0.00 0.00 0.00 0.00 0.00 0.00 0.00
nan nan nan nan nan nan nan nan nan 0.00 0.00 0.00 0.03 0.00 0.00 0.15 0.50 0.85 1.08 0.98 0.48 0.95 0.16 0.07 0.10 0.04 0.16 0.11 0.31 0.68 0.65 0.78 0.91 0.00 0.44 0.41 0.08 0.00 0.00 0.00 0.00 0.00 0.00 0.00 0.00 0.00 0.00 0.00 0.00 0.00 0.00 0.00 0.00 0.00
nan nan nan nan nan nan nan nan nan nan nan 0.00 0.14 0.86 0.32 1.12 3.97 1.26 1.10 1.52 1.46 0.53 0.76 0.60 0.81 0.10 0.15 0.15 0.53 0.30 1.16 1.07 0.01 1.13 0.07 0.03 0.03 0.00 0.00 0.00 0.00 0.00 0.00 0.00 0.00 0.00 0.00 0.00 0.00 0.00 0.00 0.00 0.00 0.00
nan nan nan nan nan nan nan nan nan 0.00 0.00 0.38 1.71 5.35 1.46 1.49 0.50 0.55 0.30 0.45 0.35 0.65 0.43 0.22 0.61 0.33 0.10 0.52 0.10 1.22 0.13 0.04 1.20 0.95 0.52 0.02 0.01 0.00 0.00 0.00 0.00 0.00 0.00 0.00 0.00 0.00 0.00 0.00 0.00 0.00 0.00 0.00 0.00 0.00
nan nan nan nan nan nan nan nan nan 0.00 0.04 1.57 1.00 3.35 1.51 0.38 0.77 0.64 0.60 0.58 0.40 0.34 0.37 0.35 0.48 0.05 0.95 0.87 0.02 0.60 0.79 1.19 0.29 0.44 0.17 0.02 0.00 0.00 0.00 0.00 0.00 0.00 0.00 0.00 0.00 0.00 0.00 0.00 0.00 0.00 0.00 0.00 0.00 0.00
nan nan 0.00 nan nan nan nan nan 0.03 0.08 1.57 1.98 1.93 1.45 0.04 1.05 1.49 1.10 1.40 0.95 0.41 0.21 0.27 0.48 1.10 1.01 0.94 0.63 0.78 0.99 1.15 0.68 0.42 0.31 0.28 0.15 0.00 0.00 0.00 0.00 0.00 0.00 0.00 0.00 0.00 0.00 0.00 0.00 0.00 0.00 0.00 0.00 0.00 0.02
nan 0.00 nan nan nan nan nan 0.02 0.47 3.00 2.81 2.98 3.02 0.06 0.44 0.85 0.79 0.27 0.18 0.15 0.04 0.26 0.93 0.74 0.97 0.98 0.84 0.97 0.83 0.76 1.33 0.32 0.31 0.23 0.08 0.05 0.06 0.04 0.00 0.00 0.00 0.00 0.00 0.00 0.00 0.00 0.00 0.00 0.00 0.00 0.00 0.06 0.08 0.00
0.00 0.00 nan nan nan nan 0.03 0.41 1.67 2.82 3.03 1.84 0.96 0.63 0.06 0.07 0.41 0.26 0.08 0.14 0.24 0.31 0.39 1.12 0.69 1.26 0.97 0.88 0.55 0.33 0.35 0.19 0.11 0.09 0.08 0.03 0.00 0.00 0.04 0.00 0.04 0.01 0.00 0.00 0.09 0.09 0.10 0.11 0.08 0.10 0.07 0.07 0.07 0.07
0.00 0.00 nan nan 0.00 0.16 0.97 1.37 1.23 2.28 2.48 0.71 0.34 0.25 0.15 0.09 0.09 0.07 0.16 0.16 0.18 0.10 0.78 0.77 1.11 1.35 0.23 0.17 0.30 0.31 0.10 0.13 0.02 0.00 0.00 0.00 0.00 0.00 0.03 0.21 0.15 0.13 0.13 0.09 0.07 0.13 0.08 0.04 0.00 0.00 0.00 0.00 0.00 0.00
nan nan nan nan nan 0.84 1.82 2.14 0.84 0.99 1.70 0.75 0.64 0.79 0.44 0.24 0.11 0.11 0.18 0.26 0.48 1.54 1.54 1.54 0.26 0.00 0.01 0.04 0.15 0.09 0.08 0.01 0.00 0.00 0.00 0.00 0.00 0.19 0.22 0.22 0.18 0.14 0.11 0.08 0.10 nan 0.09 0.06 0.00 0.00 0.00 0.00 0.00 0.00
nan nan nan 0.02 0.58 0.46 1.30 1.38 1.14 1.25 1.10 0.79 1.03 0.58 0.65 0.97 1.09 1.48 1.41 0.56 1.88 2.00 1.05 0.00 0.00 0.00 0.06 0.09 0.00 0.00 0.00 0.00 0.00 0.00 0.10 0.14 0.00 0.14 0.18 0.27 0.31 0.28 0.24 0.17 0.25 0.13 0.18 0.11 0.08 0.08 1.32 0.14 0.12 0.00
0.08 nan 0.16 0.27 1.82 1.76 0.90 0.72 0.97 0.59 1.24 1.06 1.27 0.94 2.07 2.50 2.16 1.85 0.96 2.06 1.57 0.62 0.06 0.01 0.09 0.11 0.09 0.03 0.00 0.00 0.00 0.00 0.01 0.01 nan 0.01 0.29 0.19 0.21 0.30 0.38 0.77 0.70 0.85 0.42 0.18 0.09 0.08 0.08 0.08 0.09 0.16 0.08 0.09
nan 0.27 1.24 1.52 1.69 2.11 3.26 0.68 1.24 1.23 1.33 2.12 1.86 1.61 2.06 2.33 1.45 0.66 1.61 0.83 0.63 0.15 0.15 0.16 0.21 0.13 0.14 0.09 0.00 0.00 0.00 0.00 0.01 0.01 0.01 0.02 0.03 0.17 0.35 0.15 0.26 0.94 0.94 0.36 0.23 0.22 0.37 nan 0.12 0.13 0.14 0.14 0.14 0.14
nan 1.53 1.78 1.57 1.86 2.95 0.65 1.38 0.36 0.80 0.82 0.87 1.77 1.56 1.58 1.39 0.79 1.67 1.19 0.59 0.36 0.46 0.23 0.21 0.19 0.15 0.11 0.24 0.01 0.01 0.02 0.03 0.03 0.02 0.03 0.15 0.29 0.06 0.23 0.42 0.04 0.13 0.17 0.19 0.30 0.35 0.26 0.23 nan 0.25 0.29 0.34 0.34 0.31
3.04 3.60 1.76 4.60 1.34 1.30 1.04 0.61 1.34 0.66 1.12 0.85 1.00 1.26 1.32 0.79 1.48 1.79 0.91 0.68 0.69 0.64 0.45 0.21 0.14 0.15 0.50 0.76 0.00 0.00 0.01 0.05 0.09 0.09 0.07 0.05 0.05 0.07 0.37 0.15 0.02 0.05 0.14 0.59 0.24 0.26 0.37 0.38 0.31 0.37 0.33 0.32 0.40 0.46
4.89 1.78 3.31 0.98 1.64 0.82 0.61 0.92 0.65 0.92 0.71 1.13 1.13 0.72 1.01 0.89 1.43 1.79 0.61 0.86 0.52 0.66 0.88 0.49 0.28 0.23 0.22 0.20 0.02 0.03 0.04 0.07 0.07 0.08 0.08 0.07 0.07 0.74 1.03 0.41 0.43 0.21 0.09 0.11 0.45 0.52 0.41 0.43 0.44 0.45 0.45 0.37 nan 0.46
3.69 1.85 0.50 0.03 0.12 0.08 0.27 0.36 0.29 0.57 1.02 0.98 0.81 0.69 1.02 1.62 1.13 0.28 0.27 0.29 0.47 0.37 0.47 0.40 0.30 0.29 0.23 0.20 0.18 0.23 0.26 0.33 0.39 0.37 0.04 0.04 0.04 0.07 0.67 0.91 0.61 0.22 0.15 0.33 0.48 0.53 0.67 0.60 0.56 0.53 0.61 0.57 0.48 0.46
0.27 0.28 0.49 0.87 0.32 0.32 0.28 0.25 0.41 0.67 0.56 0.23 0.32 0.90 0.98 0.68 0.62 0.37 0.38 0.40 0.65 0.70 0.72 0.38 0.39 0.49 0.53 0.50 0.45 0.42 0.35 0.33 0.31 0.30 0.20 0.01 0.01 0.26 0.28 0.32 0.34 nan 0.47 0.41 0.54 0.68 0.68 0.68 0.74 0.68 0.62 0.68 0.64 0.47
0.68 0.45 0.37 0.93 0.57 0.73 0.86 0.74 0.57 0.29 0.03 0.23 0.68 0.50 0.43 0.14 0.48 0.34 0.42 0.61 0.82 0.78 0.70 0.61 0.74 0.77 0.54 0.44 0.42 0.43 0.48 0.44 0.43 0.28 0.20 0.27 0.30 0.43 0.40 0.37 0.49 0.47 0.45 0.45 nan nan 0.44 0.70 0.66 0.60 0.47 0.49 0.50 0.71
0.63 0.79 0.56 0.66 0.73 0.62 0.78 0.37 0.82 0.69 0.21 0.25 0.25 0.31 0.27 0.49 0.68 0.63 0.66 0.72 0.78 0.95 1.16 1.24 1.13 1.42 1.12 0.82 0.86 0.44 0.42 0.41 0.42 0.56 0.68 0.61 0.62 0.44 0.66 0.63 0.52 0.47 0.44 0.45 0.47 0.42 nan 0.50 nan 0.49 0.55 0.50 0.45 0.54
0.51 0.99 0.74 0.68 0.83 1.18 0.85 0.42 0.66 0.15 0.51 0.87 0.81 0.79 0.70 0.95 0.58 0.47 0.45 0.54 0.73 1.17 1.19 1.36 1.31 1.32 0.73 0.63 0.90 0.79 0.57 0.47 0.46 0.43 0.42 0.43 0.46 0.50 0.62 0.61 0.57 0.47 0.45 0.39 0.38 0.41 0.61 0.66 0.67 0.74 0.49 0.65 0.60 0.62
0.66 0.84 1.02 0.73 1.28 1.47 0.91 1.23 1.30 1.21 1.19 1.20 1.20 1.27 0.99 0.87 0.56 0.55 0.40 0.95 0.91 0.68 nan 0.80 0.54 0.43 0.46 0.47 0.38 0.34 nan 0.39 0.42 0.42 0.44 0.48 0.48 0.48 0.55 0.48 0.61 0.54 0.46 0.45 0.48 0.55 0.65 0.79 0.74 0.73 0.56 0.71 0.74 0.61
1.61 1.40 1.61 1.02 1.85 1.46 1.35 1.55 0.67 1.98 1.33 1.20 0.85 0.77 1.04 0.49 0.29 0.41 0.22 0.62 0.58 0.47 0.50 0.57 0.51 0.51 0.29 0.31 0.34 0.30 nan 0.38 0.47 nan nan nan nan nan 0.39 0.36 0.41 0.37 0.28 0.31 0.38 0.42 0.48 0.62 0.74 0.49 0.51 0.72 0.76 0.70
SL_Ratio
nan nan nan nan nan nan nan nan nan nan nan nan nan nan nan nan nan nan nan nan nan nan nan nan nan nan nan nan nan nan nan nan nan nan 3.9 nan nan nan nan nan nan 3.7 3.6 2.9 3.3 4.1 5.5 nan nan nan nan nan nan nan
nan nan nan nan nan nan nan nan nan nan nan nan nan nan nan nan nan nan nan nan nan nan nan nan nan nan nan nan nan nan nan nan nan nan nan nan nan nan nan nan nan nan nan nan 3.3 3.3 nan nan nan nan nan nan nan nan
nan nan nan nan nan nan nan nan nan nan nan nan nan nan nan nan nan nan nan nan nan nan nan nan nan nan nan nan nan nan nan nan nan nan nan nan 3.6 nan 2.5 nan nan nan nan nan nan nan nan nan nan nan nan nan nan nan
nan nan nan nan nan nan nan nan nan nan nan nan nan nan nan nan nan nan nan nan nan nan nan nan nan nan nan nan nan nan nan nan nan nan nan nan 2.7 nan nan nan nan nan nan nan nan nan nan nan nan nan nan nan nan nan
nan nan nan nan nan nan nan nan nan nan nan nan nan nan nan nan nan nan nan nan nan nan 2.4 nan nan nan nan nan nan nan nan nan nan nan nan 2.7 nan nan nan nan 3.1 nan nan nan nan nan nan nan nan nan nan nan nan nan
nan nan nan nan nan nan nan nan nan nan nan nan nan nan nan nan nan nan nan nan nan nan nan 2.5 nan nan nan nan nan nan nan nan nan nan nan nan nan nan 3.0 3.3 nan nan nan nan nan nan nan nan nan nan nan nan nan nan
nan nan nan nan nan nan nan nan nan nan nan nan nan nan nan nan nan nan nan nan nan nan 2.5 2.6 2.8 nan nan nan nan nan nan nan nan nan nan nan nan nan 3.0 3.2 nan nan nan nan nan nan nan nan nan nan nan nan 3.0 3.6
nan nan nan nan nan nan nan nan nan nan nan nan nan nan nan nan nan nan nan nan nan nan nan 2.9 3.0 nan nan nan nan nan nan nan nan nan nan nan nan nan 3.0 nan nan nan nan nan nan nan nan 2.9 3.3 3.5 3.4 3.3 3.5 3.7
nan nan nan nan nan nan nan nan nan nan nan nan nan nan nan nan nan nan nan nan nan nan 2.7 3.1 3.5 3.8 nan nan nan nan nan 2.6 nan 2.6 nan nan 2.6 3.4 3.0 nan nan nan nan 2.9 3.4 3.3 3.5 3.9 3.4 3.4 3.5 3.7 3.8 3.9
nan nan nan nan nan nan nan nan nan nan nan nan nan nan 2.6 nan nan nan 2.6 2.5 2.8 2.8 2.5 3.0 nan 3.5 nan 2.9 2.7 2.6 2.7 2.9 3.7 3.0 2.9 2.5 2.6 3.3 3.4 3.3 3.0 3.3 3.1 3.0 4.4 4.6 3.8 4.1 3.9 4.1 3.8 3.6 nan nan
nan nan nan nan nan nan nan nan nan nan nan nan 2.6 2.7 nan nan nan 2.8 3.3 3.5 3.0 3.7 3.0 3.0 nan 3.1 nan 3.3 3.0 2.9 3.5 3.4 5.8 4.4 4.0 4.7 4.7 4.3 5.0 3.7 3.8 4.0 3.3 3.5 3.7 3.6 3.4 3.5 nan nan nan nan nan nan
nan nan nan nan nan nan nan nan nan nan nan nan 2.7 nan 2.5 2.8 3.1 4.5 4.8 4.6 3.6 5.1 3.6 3.5 3.4 3.0 3.1 3.0 3.3 3.6 4.9 5.3 7.3 3.8 6.1 6.9 5.1 nan nan nan nan nan nan nan nan nan nan nan nan nan nan nan nan nan
nan nan nan nan nan nan nan nan nan nan nan nan 2.7 2.5 3.3 3.7 6.5 6.3 8.5 6.8 6.4 4.4 3.8 3.6 4.1 3.3 3.2 3.1 3.8 4.1 6.5 7.4 4.6 7.4 8.0 5.8 4.6 nan nan nan nan nan nan nan nan nan nan nan nan nan nan nan nan nan
nan nan nan nan nan nan nan nan nan nan nan 2.8 3.6 6.2 5.7 6.5 5.7 5.5 5.5 5.4 5.5 4.1 3.8 3.6 3.9 3.9 3.7 4.3 3.7 6.0 4.4 4.9 8.4 9.2 9.3 5.8 5.1 nan nan nan nan nan nan nan nan 3.3 3.6 2.5 nan nan nan nan nan nan
nan nan nan nan nan nan nan nan nan nan 2.7 4.1 3.5 6.4 6.2 6.2 6.6 6.5 6.0 5.2 4.5 3.8 3.9 4.8 5.1 4.7 6.4 6.2 5.1 6.1 8.5 8.5 7.2 8.5 6.2 5.6 nan nan nan nan nan nan nan nan nan nan nan nan nan nan nan nan nan nan
nan nan nan nan nan nan nan nan 2.9 2.8 4.0 4.0 4.7 6.2 6.4 6.6 7.6 8.1 6.3 5.4 4.1 4.3 4.4 5.0 6.1 7.1 7.3 6.8 7.3 8.5 9.0 9.4 7.2 6.2 6.3 5.8 nan nan nan nan nan nan nan nan nan nan nan nan nan nan nan nan nan 6.2
nan nan nan nan nan nan nan 3.5 4.4 4.1 4.3 4.5 6.1 4.7 5.9 6.0 5.8 5.9 5.1 4.2 3.5 4.3 6.0 6.0 8.0 7.9 6.2 9.5 8.8 7.2 8.9 6.3 6.3 6.5 5.9 6.0 6.5 6.1 nan nan nan nan nan nan nan nan nan nan nan nan nan 7.3 8.6 7.7
nan nan nan nan nan nan 2.7 3.4 4.1 4.3 5.9 5.0 6.9 6.4 5.3 5.0 5.8 5.4 4.8 4.4 3.8 5.3 5.9 6.2 6.6 7.8 8.6 9.3 8.6 6.8 6.8 6.4 6.2 6.0 5.9 5.8 nan nan 5.6 nan 6.1 6.9 nan nan 7.9 8.1 8.5 9.4 8.9 8.1 9.9 9.5 9.9 9.9
nan nan nan nan nan 2.9 4.0 4.1 4.1 7.1 7.0 6.0 6.3 5.9 5.6 5.5 5.0 4.7 4.8 4.2 4.3 4.5 5.8 6.3 7.0 8.2 8.0 6.8 6.4 6.4 6.7 6.4 6.4 nan 0.0 2.5 nan nan 7.4 7.9 8.4 8.8 9.3 8.3 8.3 7.5 7.6 8.2 nan nan nan nan nan nan
nan nan nan nan nan 3.5 5.4 5.8 4.1 6.0 7.6 6.9 6.2 6.8 6.1 6.1 5.6 4.6 4.9 5.0 5.0 5.6 7.0 7.7 8.0 nan 6.6 5.9 6.2 5.8 5.8 5.7 nan nan nan nan nan 8.4 8.4 8.3 7.7 9.2 9.9 9.9 9.7 nan 8.7 9.6 nan nan nan nan 8.6 8.8
nan nan nan 2.8 3.0 2.9 4.0 6.1 6.6 7.4 6.7 7.6 6.6 6.5 7.8 6.1 7.1 6.6 7.0 5.3 6.1 7.4 8.5 7.5 nan nan 5.8 5.4 nan nan nan nan nan nan 6.5 8.0 6.3 8.0 9.1 9.4 9.8 8.9 8.5 9.1 9.8 9.6 9.9 9.9 9.9 9.9 9.2 9.8 9.9 9.5
2.5 nan 3.1 3.1 4.5 5.2 6.2 4.9 7.0 6.9 9.0 8.2 7.5 7.2 7.7 7.9 7.7 7.5 5.5 7.6 8.1 7.3 6.9 6.0 5.8 6.4 6.8 8.7 2.5 5.5 5.0 5.6 5.6 6.7 nan 7.1 9.8 9.9 9.9 9.8 9.8 9.5 9.6 9.5 9.7 9.9 9.9 9.9 9.9 9.9 9.8 9.8 9.9 9.8
nan 4.0 4.5 4.1 7.2 7.3 7.9 5.5 8.7 8.9 9.3 8.9 8.8 9.2 9.0 8.8 8.6 6.5 9.0 8.7 8.6 8.0 7.0 7.6 8.4 8.7 7.8 9.2 7.1 6.9 7.1 7.1 7.6 7.8 7.2 8.5 8.7 9.8 9.7 9.7 9.7 9.5 9.5 9.9 9.9 9.9 9.8 nan 9.9 9.9 9.8 9.8 9.8 9.9
nan 4.7 6.9 8.5 8.1 8.8 7.8 9.2 8.0 9.3 9.4 9.6 9.3 9.7 9.5 9.2 8.6 9.2 9.6 9.4 8.7 8.1 9.0 9.3 9.2 9.5 9.8 9.9 8.4 8.7 8.4 8.1 8.3 8.7 8.6 9.6 9.8 9.9 9.8 9.8 10.2 9.9 9.9 10.0 9.9 9.9 9.9 9.9 nan 9.8 9.8 9.8 9.9 9.9
7.0 8.1 8.4 8.5 8.4 9.6 9.9 10.5 9.6 10.0 10.0 10.1 10.2 10.2 9.9 9.8 9.7 9.6 10.0 9.8 9.8 10.0 10.0 9.6 9.6 9.6 9.7 9.4 11.7 10.8 9.4 8.4 9.2 9.9 9.8 9.0 9.8 10.7 10.2 10.4 12.5 10.9 10.0 9.7 10.1 9.9 9.8 9.8 9.8 9.8 9.8 9.9 10.0 10.1
8.4 8.9 8.8 9.6 9.4 9.7 10.2 10.2 10.5 10.3 10.3 10.6 10.7 11.1 10.1 10.1 9.9 9.9 10.4 10.3 10.9 11.0 10.6 10.5 10.1 10.0 10.2 10.0 9.5 9.8 9.9 9.1 9.4 10.8 11.2 9.9 10.1 9.9 9.8 10.2 10.0 10.3 10.0 9.7 9.6 10.0 9.8 9.8 9.8 9.8 9.9 9.9 nan 9.6
8.9 9.4 9.4 6.8 9.9 10.2 10.4 10.4 10.2 10.1 10.2 10.3 10.3 10.3 9.9 10.2 10.4 11.0 11.3 12.8 11.8 12.5 11.5 11.2 10.2 10.1 10.3 10.3 10.5 10.6 10.3 10.1 10.0 10.1 11.8 12.0 11.5 10.1 9.6 9.9 10.3 10.0 9.3 9.1 9.3 9.6 9.9 9.8 9.9 9.8 9.8 9.7 9.7 9.7
9.4 9.7 9.9 9.6 10.1 9.9 10.1 10.3 10.4 10.3 10.4 10.7 10.5 10.3 10.2 10.5 10.1 10.9 11.7 12.3 11.9 11.2 10.9 11.7 10.8 10.2 10.3 10.4 10.3 10.2 10.4 10.3 10.2 10.0 9.9 12.2 12.3 9.9 9.9 9.8 9.7 nan 9.4 9.6 9.5 9.3 9.4 9.5 9.6 9.9 10.0 10.0 9.8 9.6
9.8 9.7 9.8 10.1 10.4 10.2 10.1 10.2 10.2 10.4 10.0 10.3 10.1 10.4 10.8 11.4 11.0 11.9 12.7 12.1 11.3 10.8 11.0 11.3 11.0 10.3 10.6 10.6 10.4 10.4 10.1 10.1 10.2 10.4 10.4 10.4 10.3 10.4 10.1 9.7 9.6 9.6 9.7 9.7 nan nan 9.4 9.4 9.6 9.6 9.7 9.7 9.7 9.5
9.9 9.6 10.3 10.4 10.2 10.4 10.1 10.4 9.9 10.1 10.3 10.1 10.6 11.7 12.8 11.8 12.0 12.2 12.5 12.4 12.1 11.8 11.0 10.5 10.2 9.7 10.0 10.0 10.1 10.6 10.3 10.2 10.1 10.5 10.7 10.5 10.1 10.0 9.6 9.5 9.6 9.7 9.7 9.7 9.8 9.8 nan 9.7 nan 9.8 9.8 9.9 9.8 9.9
9.8 9.8 11.0 11.1 11.1 10.3 10.8 11.7 10.5 11.4 10.6 10.5 10.5 10.4 11.0 10.8 12.2 12.8 13.6 13.1 11.8 10.5 10.2 10.1 10.0 9.8 10.1 10.2 9.9 10.0 10.1 10.2 10.0 10.0 10.0 10.1 9.9 9.7 9.5 9.7 9.7 9.7 9.7 9.9 9.9 9.9 9.9 10.0 10.0 10.0 10.2 10.2 10.1 10.2
10.3 10.8 10.4 11.0 10.2 10.0 10.6 10.4 10.5 10.4 10.3 10.2 10.5 10.3 10.9 10.9 12.2 12.4 13.1 11.2 10.9 11.5 nan 10.9 11.3 11.7 10.8 10.6 10.7 10.5 nan 10.4 10.2 10.1 10.2 10.0 9.9 9.6 9.9 9.8 9.7 9.7 9.8 9.8 9.9 9.9 10.0 10.0 10.0 10.2 10.4 10.4 10.5 10.6
10.2 10.3 10.2 10.8 9.9 10.2 10.3 10.0 11.2 9.8 10.3 10.4 10.8 10.8 10.7 11.4 13.5 12.1 12.7 11.5 11.6 12.0 11.8 11.4 11.3 10.9 11.8 11.5 11.2 11.5 nan 10.7 10.5 nan nan nan nan nan 10.0 9.7 9.7 9.8 9.9 10.0 10.0 10.0 10.1 10.1 10.0 10.3 10.4 10.3 10.4 10.7